Regional Weather Roundup
Issued by NWS

Home | Current Version | Previous Version | Graphics & Text | Print | Product List | Glossary Off
Versions: 1 2 3 4 5 6 7 8 9 10 11 12 13 14 15 16 17 18 19 20 21 22 23 24 25 26 27 28 29 30 31 32 33 34 35 36 37 38 39 40 41 42 43 44 45 46 47 48 49 50

188
ASUS43 KLSX 081407
RWRMO

WEATHER SUMMARY FOR MISSOURI
NATIONAL WEATHER SERVICE SPRINGFIELD MO
800 AM CST THU DEC 08 2016

NOTE: "FAIR" INDICATES FEW OR NO CLOUDS BELOW 12,000 FEET WITH NO
       SIGNIFICANT WEATHER AND/OR OBSTRUCTIONS TO VISIBILITY.
       CURRENT SKY AND/OR WEATHER CONDITIONS ARE NOT AVAILABLE FOR
       CHILLICOTHE AND FARMINGTON.

MOZ001>031-035>038-043-044-053-054-081500-
...NORTHERN AND WESTERN MISSOURI...

CITY           SKY/WX    TMP DP  RH WIND       PRES   REMARKS
KANSAS CTY INT CLEAR     14   4  64 NW12      30.57R WCI   0
KANSAS C DTWN  CLEAR     16   6  65 NW12G21   30.60R WCI   3
LEE`S SUMMIT   CLEAR     15   6  67 W12       30.57R WCI   2
ST JOSEPH      CLEAR     14   5  67 NW14G23   30.59R WCI  -1
CHILLICOTHE      N/A     15   6  67 NW8G17    30.54R WCI   4
KIRKSVILLE     PTCLDY    15   7  70 W14       30.47R WCI   0

$$
MOZ066>068-077>081-088>096-101>105-081500-
...SOUTHWEST MISSOURI...

CITY           SKY/WX    TMP DP  RH WIND       PRES   REMARKS
SPRINGFIELD    PTCLDY    17   9  70 NW10      30.53S WCI   5
JOPLIN         PTCLDY    17  11  77 W5        30.62R WCI  10
BRANSON        MOCLDY    19  10  68 NW6       30.55R WCI  11

$$
MOZ032>034-039>042-045>050-055>058-069>072-081500-
...CENTRAL MISSOURI...

CITY           SKY/WX    TMP DP  RH WIND       PRES   REMARKS
COLUMBIA       CLEAR     18   9  68 W13       30.50R WCI   5
JEFFERSON CITY CLEAR     19   9  65 W12       30.54R WCI   7
ROLLA          PTCLDY    17   9  70 W12       30.48R WCI   4
SEDALIA        CLEAR     17   9  70 W9        30.55R WCI   6
WHITEMAN AFB   PTCLDY    16   9  73 W9        30.53S WCI   4
WARRENSBURG    CLEAR     18   9  68 W6        30.57S WCI   9
OSAGE BEACH    PTCLDY    19  11  70 W8        30.55R WCI   9

$$
MOZ051-052-059>065-081500-
...EAST CENTRAL MISSOURI...

CITY           SKY/WX    TMP DP  RH WIND       PRES   REMARKS
ST LOUIS INTL  PTCLDY    22  10  60 W17G23    30.46R WCI   8
SPIRIT OF STL  CLEAR     21  11  65 W9        30.48R WCI  11
ST CHARLES     CLEAR     21  12  68 W17       30.46R WCI   7

$$
MOZ072>076-082>087-097>100-106>115-081500-
...SOUTH CENTRAL AND SOUTHEAST MISSOURI...

CITY           SKY/WX    TMP DP  RH WIND       PRES   REMARKS
CAPE GIRARDEAU PTCLDY    24  13  62 W9        30.48R WCI  14
FARMINGTON     CLEAR     20  11  68 NW15G21   30.46R WCI   6
POPLAR BLUFF   PTCLDY    26  12  55 NW8       30.51R WCI  18
WEST PLAINS    CLOUDY    21  11  65 NW9       30.50R WCI  11

$$



USA.gov is the U.S. government's official web portal to all federal, state and local government web resources and services.